Find Starlink 34342

NORAD ID: 64271 Int'l Des: 2025-120 Owner: SPXS Country: US Constellation: starlink operational
LEOCIRCULAR

当前视图

正在加载3D地球...

About Starlink 34342

Starlink 34342 (NORAD 64271) is a starlink constellation satellite (v2 mini) launched Jun 4, 2025 by SPXS of US. It operates in LEO, CIRCULAR orbit with a mass of 575.00 kg.

即将过境

Passes for default location (London). Set your location on the main map for personalized predictions.

高度历史

Loading altitude history...

两行轨道根数

1 64271U 25120R 26263.08797383 .00013631 00000-0 41370-3 0 9996
2 64271 53.1529 291.3049 0002775 93.5669 266.5651 15.34409233 73661
Epoch: Sep 20, 2026 • Age: 20 hours

当前状态

高度 477.5 km
远地点 / 近地点 N/A
速度 7.63 km/s
星下点 -40.11°S, 84.33°W
发射日期 Jun 4, 2025
运行时间 1.2 years
类型 internet

技术详情

分类 Payload
质量 575.00 kg
干质量 530.00 kg
长度 0.30 m
跨度 29.00 m
形状 ? Box + pan
制造商 SPXS
平台类型 Starlink V2MO
阶段状态 In Orbit
所有者/国家 SPXS/US

Most Searched